Regional Weather Roundup
Issued by NWS State College, PA

Home | Current Version | Previous Version | Graphics & Text | Print | Product List | Glossary On
Versions: 1 2 3 4 5 6 7 8 9 10 11 12 13 14 15 16 17 18 19 20 21 22 23 24 25 26 27 28 29 30 31 32 33 34 35 36 37 38 39 40 41 42 43 44 45 46 47 48 49 50
000
ASUS41 KCTP 250410
RWRCTP

REGIONAL WEATHER ROUNDUP
NATIONAL WEATHER SERVICE STATE COLLEGE PA
1200 AM EDT SAT APR 25 2015

Note: "fair" indicates few or no clouds below 12,000 feet with no
significant weather and/or obstructions to visibility.

* = STATION THAT DOES NOT REPORT PRECIPITATION /E.G. RAIN...SNOW...ETC/
    THUNDER OR FOG.

PAZ002>004-007>009-013>016-020>023-029>032-250500-
WESTERN PENNSYLVANIA

CITY           SKY/WX    TMP DP  RH WIND       PRES   REMARKS
ERIE           CLEAR     32  21  64 CALM      30.01F
MEADVILLE      CLEAR     34  17  50 NE6       29.98F
FRANKLIN*      CLEAR     32  16  51 NE8       29.99F
NEW CASTLE     FAIR      37  20  50 CALM      30.01F
BEAVER COUNTY  NOT AVBL
BUTLER*        CLEAR     36  19  51 NE6       30.00F
PITTSBURGH INT MOCLDY    42  18  37 NE3       29.98S
PITTSBURGH     CLEAR     39  16  39 N6        29.97S
INDIANA*       PTCLDY    34  19  55 CALM      30.02S
LATROBE        CLEAR     39  19  45 CALM      30.01R
WASHINGTON CO* CLEAR     36  25  64 CALM      30.00S
$$

PAZ004>006-010>012-017>019-024>028-033>037-041-042-045-046-049>053-250500-
CENTRAL PENNSYLVANIA

CITY           SKY/WX    TMP DP  RH WIND       PRES   REMARKS
BRADFORD       CLEAR     30  17  58 W6        29.95F
DUBOIS         CLEAR     33  14  45 N5        29.96F
CLEARFIELD     CLEAR     34  13  41 NW5       29.98F
JOHNSTOWN      CLEAR     36  13  38 N8        29.94F
ALTOONA        CLEAR     38  14  37 N6        29.96F
STATE COLLEGE  CLEAR     37  12  35 N6        29.97F
WILLIAMSPORT   CLEAR     37  19  48 W6        29.98R
SELINSGROVE    CLEAR     31  24  75 CALM      29.98R
FT INDIANTOWN  CLEAR     43  15  32 VRB5      29.95S
CAPITAL CITY   CLEAR     48  10  21 NW14G22   29.95S
HARRISBURG     CLEAR     46   8  21 N3        29.95R
YORK           CLEAR     34  25  69 NW5       29.94F
$$

PAZ038>040-043-044-047-048-054-055-060>062-067>071-250500-
EASTERN PENNSYLVANIA

CITY           SKY/WX    TMP DP  RH WIND       PRES   REMARKS
SCRANTON       MOCLDY    34  22  61 CALM      29.93F
MOUNT POCONO   CLEAR     32  19  58 NW10      29.86F
ALLENTOWN      CLEAR     38  21  50 NW5       29.96S
QUAKERTOWN*    CLEAR     37  21  52 N6        29.96R
READING        CLEAR     39  21  48 CALM      29.95R
LANCASTER      CLEAR     40  16  37 NE7       29.95R
COATESVILLE    CLEAR     41  21  45 NE3       29.95S
POTTSTOWN      CLEAR     38  20  48 N5        29.97R
BLUE BELL      CLEAR     41  25  52 CALM      29.95R
DOYLESTOWN     CLEAR     38  20  48 N3        29.95R
WILLOW GROVE   NOT AVBL
NORTH PHILA    CLEAR     41  19  41 CALM      29.98R
PHILADELPHIA   PTCLDY    45  20  36 N16G23    29.97R
$$



USA.gov is the U.S. government's official web portal to all federal, state and local government web resources and services.